Cloud_Cover
100 100 100 100 100 100 100 100 100 100 100 100 99 76 17 5 5 5 5 4 2 0 0 0 0 0 0 4 5 5 0 0
100 100 100 100 90 78 78 66 100 100 100 67 22 39 76 17 5 5 5 0 0 0 0 0 0 0 0 5 5 5 4 5
100 84 97 39 51 35 0 100 97 85 75 91 99 97 62 5 5 5 4 0 0 0 0 0 0 0 0 5 16 51 7 5
99 100 87 12 0 0 0 16 5 14 100 100 100 93 62 64 33 6 4 0 0 0 0 0 0 0 2 17 98 84 12 5
100 100 76 0 0 0 0 5 24 76 85 96 91 48 11 5 5 3 0 0 0 0 0 0 4 5 5 16 64 71 84 84
100 100 3 0 0 4 5 18 70 79 71 88 38 5 5 5 0 0 0 0 0 0 4 5 5 5 5 5 5 23 65 5
84 33 1 0 0 5 15 95 83 5 5 5 5 5 2 0 0 0 0 0 0 0 0 0 0 0 2 5 5 5 2 5
0 0 0 0 5 45 100 100 96 44 5 5 5 0 0 0 0 0 0 0 0 0 0 0 0 0 1 4 5 4 5 6
0 0 4 5 29 100 100 100 98 79 5 4 0 0 0 0 0 0 0 0 0 0 0 0 0 0 0 0 5 5 9 91
0 3 6 30 96 100 100 88 69 6 4 0 0 0 0 0 0 0 0 0 0 0 0 0 0 0 0 5 5 5 9 5
1 6 58 50 100 100 100 77 57 5 0 0 0 0 0 0 0 0 0 0 0 0 0 0 2 4 5 37 5 5 4 0
5 28 37 81 100 100 100 95 32 1 0 0 0 0 0 0 0 0 0 0 0 0 0 4 5 5 5 5 5 0 4 30
5 26 48 100 100 100 100 99 5 0 0 0 0 0 0 0 0 0 0 0 0 0 3 5 5 5 5 5 5 34 26 33
5 7 100 100 100 50 85 47 3 0 0 0 0 0 0 0 0 0 0 0 0 1 5 5 5 5 4 8 43 42 5 94
5 94 100 100 91 64 9 5 0 0 0 0 0 0 0 0 0 0 0 0 0 5 5 5 4 0 6 28 8 5 26 84
72 100 100 100 100 19 4 0 0 0 0 0 0 0 0 0 0 0 0 0 4 0 5 5 1 89 27 59 78 78 90 85
100 100 99 75 5 0 0 0 0 0 0 0 0 0 0 0 0 0 0 4 5 5 4 3 56 9 25 77 99 74 71 88
12 14 5 5 0 0 0 0 0 0 0 0 0 0 0 0 0 0 0 4 5 5 3 5 5 5 68 89 100 88 92 100
5 5 2 0 0 0 0 0 0 0 0 0 0 0 0 0 0 0 0 1 3 4 5 5 5 51 99 100 99 100 99 100